Regional Weather Roundup
Issued by NWS Wilmington, NC

Home | Current Version | Previous Version | Text Only | Print | Product List | Glossary On
Versions: 1 2 3 4 5 6 7 8 9 10 11 12 13 14 15 16 17 18 19 20 21 22 23 24 25 26 27 28
000
ASUS42 KILM 170013
RWRILM
RWRILM
REGIONAL HOURLY WEATHER ROUNDUP
NATIONAL WEATHER SERVICE WILMINGTON NC
800 PM EDT MON OCT 16 2017

NOTE: "FAIR" INDICATES FEW OR NO CLOUDS BELOW 12,000 FEET WITH NO
SIGNIFICANT WEATHER AND/OR OBSTRUCTIONS TO VISIBILITY.

...............WFO WILMINGTON COUNTY WARNING AREA...............

......COASTAL NC AND SC COUNTIES......

CITY           SKY/WX    TMP DP  RH WIND       PRES   REMARKS
WILMINGTON     CLOUDY    60  53  77 N15       30.10R
N MYRTLE BEACH CLOUDY    60  54  80 N14       30.09R
MYRTLE BEACH   CLOUDY    61  54  77 N15       30.11R

......INLAND NC AND SC COUNTIES.......

CITY           SKY/WX    TMP DP  RH WIND       PRES   REMARKS
LUMBERTON      MOCLDY    58  56  93 N5        30.13R
ELIZABETHTOWN  NOT AVBL
WHITEVILLE     CLOUDY    59  54  82 N7        30.11R
FLORENCE       PTCLDY    60  57  89 NE7       30.13R
DARLINGTON     MOCLDY    58  54  86 N7        30.15R
KINGSTREE      CLOUDY    61  54  77 N5        30.11R
HARTSVILLE     FAIR      55  50  82 N8        30.14R
BENNETTSVILLE  FAIR      59  54  82 N3        30.14R
CONWAY         CLOUDY    59  54  82 N12G21    30.11R
GEORGETOWN     CLOUDY    61  59  94 N18       30.09R
MARION         FAIR     N/A N/A N/A N8        30.13R

....................REST OF NORTH CAROLINA......................

.........EASTERN NC.........

CITY           SKY/WX    TMP DP  RH WIND       PRES   REMARKS
CAPE HATTERAS  HVY RAIN  63  61  93 NE14G24   30.06R FOG
JACKSONVILLE   CLOUDY    58  52  80 N9        30.12R
MOREHEAD CITY  CLOUDY    60  55  83 N18G26    30.07R
KENANSVILLE    NOT AVBL
NEW BERN       CLOUDY    59  53  80 NE20G33   30.12R
ELIZABETH CITY CLOUDY    60  52  74 N13       30.12R

.........CENTRAL NC.........

CITY           SKY/WX    TMP DP  RH WIND       PRES   REMARKS
RALEIGH DURHAM MOCLDY    58  57  97 CALM      30.16R
ROCKY MOUNT    PTCLDY    55  55 100 N6        30.15R
ROANOKE RAPIDS NOT AVBL
FAYETTEVILLE   MOCLDY    58  57  97 N3        30.13R
HOFFMAN        CLOUDY    57  49  75 N6        30.14R

.........WESTERN NC.........

CITY           SKY/WX    TMP DP  RH WIND       PRES   REMARKS
CHARLOTTE      PTCLDY    59  42  53 N10       30.18R
GREENSBORO     PTCLDY    56  41  57 N6        30.19R
HICKORY        NOT AVBL
BOONE          NOT AVBL
ASHEVILLE      NOT AVBL

.....................REST OF SOUTH CAROLINA.....................

.........EASTERN SC.........

CITY           SKY/WX    TMP DP  RH WIND       PRES   REMARKS
CHARLESTON     CLOUDY    63  58  83 N20G31    30.06R
BEAUFORT MCAS  MOCLDY    66  62  87 N13G21    30.06R
HILTON HEAD    CLOUDY    68  64  88 N24G32    30.02R

.........CENTRAL SC.........

CITY           SKY/WX    TMP DP  RH WIND       PRES   REMARKS
COLUMBIA       PTCLDY    65  48  54 NE10      30.13R
ORANGEBURG     MOCLDY    63  53  70 NE9       30.11R
SUMTER SHAW    PTCLDY    61  53  75 N9        30.11R

.........WESTERN SC.........

CITY           SKY/WX    TMP DP  RH WIND       PRES   REMARKS
GREENVILLE     NOT AVBL
ROCK HILL      CLEAR     60  45  57 NE8       30.18R
ANDERSON       CLEAR     60  40  47 NE14G23   30.16R
CLEMSON        NOT AVBL
GREENWOOD      CLEAR     61  49  64 N7        30.17R


...................COASTAL AND OFFSHORE REPORTS..................

................LOCAL PIERS AND NC RESERVE................


STATION/POSITION TIME  SKY/WX   TEMP    WIND        PRES    VSBY
                                AIR SEA DIR/SP/G
                 (UTC)          (F)     (DEG/KT/KT) (MB)    (MI)
JOHNY MRCER PIER 2336            60 78   10/ 17/ 24 1017.4R
NC RESRV MASNBRO 2245            60      30/  3     1018.0
OCEAN CREST PIER NOT AVBL
SPRINGMAID  PIER 2336                               1018.2R


................COASTAL AND OFFSHORE BUOYS................


STATION/POSITION TIME  SKY/WX   TEMP    WIND        PRES    VSBY
                                AIR SEA DIR/SP/G
                 (UTC)          (F)     (DEG/KT/KT) (MB)    (MI)
DIMNDSHOAL 41025 2350            68 81   10/ 25/ 31 1016.1R
WVE H/P(F/S)=  7/ 6 SWL H/P/D(F/S/D)=  2/110/11

CAPE LOOKOUT     0000            62     360/ 26/ 32 1017.6R
ONSLOW BAY 41036 NOT AVBL
ONSLOW BAY 41064 2308            66      20/ 25/ 35 1015.7R
ONSLOW BAY 41159 NOT AVBL
MASNBO INL 41110 2329               77                N/A
WVE H/P(F/S)=  5/ 5

WILM HARBR 41108 2330               78                N/A
WVE H/P(F/S)=  5/ 4

27SE WRITB 41037 2308            67 78   20/ 21/ 29 1016.1R
FRYING PAN 41013 0000            67 79   10/ 25/ 31 1016.3
SUNST NRSH 41024 2308            62 77   40/ 19/ 27 1017.5R
CAPRS NRSH 41029 2308            64 78   20/ 19/ 25 1016.2R
EDISTO     41004 2350            72 81  360/ 25/ 31 1015.5R
WVE H/P(F/S)=  4/ 4 SWL H/P/D(F/S/D)=  2/ 90/ 8



..........OFFSHORE BUOYS BEYOND 100 NM OFFSHORE...........
.....IN A TRIANGLE---HAT TO BERMUDA TO BAHAMAS TO HAT.....


STATION/POSITION TIME  SKY/WX   TEMP    WIND        PRES    VSBY
                                AIR SEA DIR/SP/G
                 (UTC)          (F)     (DEG/KT/KT) (MB)    (MI)
150E HAT   41001 NOT AVBL
W BERMUDA  41048 0000            77 79  170/ 12/ 14 1014.8
ATLANTIC S 41049 2350            81 81  150/ 17/ 21 1019.5R
WVE H/P(F/S)=  8/ 9 SWL H/P/D(F/S/D)=  5/110/ 9

E BAHAMAS  41046 0000            79 82  190/ 17/ 23 1016.0
NE BAHAMAS 41047 2350            75 82   40/ 10/ 14 1013.3R
WVE H/P(F/S)=  9/10 SWL H/P/D(F/S/D)= 10/130/10

120E CANVRL41010 NOT AVBL

END




USA.gov is the U.S. government's official web portal to all federal, state and local government web resources and services.